| time (UTC) | temp F | wind direction | speed knots | gust knots | rain 1hr in | rain 24hr in | rain mn in | humidity % | barometer mb |
| 20260506175144 | 58 | 293 | 0.0 | 2.6 | 0.01 | 0.11 | 0.13 | 60 | 1014.2 |
| 20260506174658 | 59 | 296 | 0.9 | 1.7 | 0.01 | 0.11 | 0.13 | 60 | 1014.1 |
| 20260506174136 | 59 | 296 | 0.0 | 2.6 | 0.01 | 0.11 | 0.13 | 60 | 1014.0 |
| 20260506173701 | 59 | 296 | 0.0 | 2.6 | 0.02 | 0.11 | 0.13 | 60 | 1014.1 |
| 20260506173234 | 59 | 288 | 0.9 | 1.7 | 0.02 | 0.11 | 0.12 | 60 | 1014.1 |
| 20260506172732 | 60 | 186 | 0.0 | 1.7 | 0.02 | 0.11 | 0.12 | 59 | 1014.1 |
| 20260506172222 | 60 | 171 | 0.0 | 1.7 | 0.04 | 0.11 | 0.12 | 59 | 1014.0 |
| 20260506172107 | 60 | 171 | 0.0 | 1.7 | 0.04 | 0.11 | 0.12 | 58 | 1013.9 |
| 20260506171233 | 61 | 171 | 0.0 | 0.9 | 0.04 | 0.11 | 0.11 | 58 | 1013.8 |
| 20260506170733 | 61 | 171 | 0.0 | 1.7 | 0.05 | 0.11 | 0.11 | 57 | 1013.8 |
| 20260506170139 | 61 | 169 | 0.0 | 1.7 | 0.05 | 0.11 | 0.11 | 56 | 1013.8 |
| 20260506165745 | 62 | 168 | 0.0 | 1.7 | 0.00 | 0.06 | 0.09 | 56 | 1013.8 |
| 20260506165713 | 62 | 166 | 0.0 | 1.7 | 0.01 | 0.06 | 0.09 | 54 | 1013.8 |
| 20260506164716 | 63 | 135 | 0.0 | 1.7 | 0.01 | 0.06 | 0.09 | 53 | 1013.9 |
| 20260506164300 | 63 | 131 | 0.0 | 4.3 | 0.01 | 0.06 | 0.09 | 52 | 1013.9 |
| 20260506163822 | 63 | 131 | 0.9 | 4.3 | 0.01 | 0.06 | 0.08 | 49 | 1013.8 |
| 20260506163159 | 64 | 134 | 0.0 | 0.0 | 0.01 | 0.06 | 0.08 | 46 | 1013.8 |
| 20260506162700 | 65 | 134 | 0.0 | 0.0 | 0.01 | 0.06 | 0.07 | 45 | 1013.7 |
| 20260506162211 | 66 | 134 | 0.0 | 0.0 | 0.01 | 0.06 | 0.07 | 43 | 1013.6 |
| 20260506162202 | 65 | 134 | 0.0 | 0.0 | 0.01 | 0.06 | 0.07 | 45 | 1013.7 |
| 20260506161204 | 67 | 134 | 0.0 | 0.9 | 0.01 | 0.06 | 0.07 | 41 | 1013.7 |
| 20260506160704 | 68 | 137 | 0.0 | 4.3 | 0.00 | 0.05 | 0.06 | 39 | 1013.6 |
| 20260506160654 | 67 | 134 | 0.0 | 3.5 | 0.01 | 0.06 | 0.06 | 41 | 1013.7 |
| 20260506160153 | 68 | 134 | 2.6 | 4.3 | 0.01 | 0.06 | 0.06 | 38 | 1013.7 |
| 20260506155616 | 69 | 275 | 1.7 | 5.2 | 0.00 | 0.05 | 0.05 | 37 | 1013.7 |
| 20260506154741 | 68 | 286 | 3.5 | 5.2 | 0.00 | 0.05 | 0.05 | 39 | 1013.8 |
| 20260506154647 | 68 | 292 | 0.9 | 5.2 | 0.00 | 0.05 | 0.05 | 40 | 1013.6 |
| 20260506154237 | 68 | 99 | 0.9 | 5.2 | 0.00 | 0.05 | 0.05 | 39 | 1013.8 |
| 20260506153714 | 68 | 130 | 0.9 | 3.5 | 0.00 | 0.05 | 0.05 | 38 | 1013.8 |
| 20260506152645 | 67 | 345 | 0.9 | 4.3 | 0.00 | 0.05 | 0.05 | 42 | 1013.9 |
| 20260506152220 | 66 | 23 | 1.7 | 6.1 | 0.00 | 0.05 | 0.05 | 40 | 1013.9 |
| 20260506152138 | 67 | 96 | 1.7 | 6.1 | 0.00 | 0.05 | 0.05 | 39 | 1013.9 |
| 20260506151153 | 67 | 0 | 2.6 | 4.3 | 0.00 | 0.05 | 0.05 | 40 | 1013.9 |
| 20260506150641 | 67 | 344 | 0.9 | 3.5 | 0.00 | 0.05 | 0.05 | 43 | 1013.9 |
| 20260506150232 | 67 | 235 | 1.7 | 4.3 | 0.00 | 0.05 | 0.05 | 40 | 1014.0 |
| 20260506145642 | 68 | 176 | 1.7 | 3.5 | 0.00 | 0.05 | 0.05 | 39 | 1014.1 |
| 20260506145610 | 68 | 224 | 0.9 | 4.3 | 0.00 | 0.05 | 0.05 | 39 | 1014.1 |
| 20260506144758 | 68 | 219 | 0.9 | 4.3 | 0.00 | 0.05 | 0.05 | 41 | 1014.1 |
| 20260506144224 | 69 | 147 | 1.7 | 4.3 | 0.00 | 0.05 | 0.05 | 40 | 1014.1 |
| 20260506143633 | 68 | 127 | 2.6 | 4.3 | 0.00 | 0.05 | 0.05 | 40 | 1014.1 |
| 20260506143154 | 68 | 144 | 0.9 | 6.1 | 0.00 | 0.05 | 0.05 | 39 | 1014.2 |
| 20260506143126 | 68 | 149 | 0.0 | 4.3 | 0.00 | 0.05 | 0.05 | 41 | 1014.1 |
| 20260506142145 | 68 | 135 | 1.7 | 6.1 | 0.00 | 0.05 | 0.05 | 38 | 1014.0 |
| 20260506141627 | 68 | 125 | 3.5 | 4.3 | 0.00 | 0.05 | 0.05 | 41 | 1014.1 |
| 20260506141310 | 68 | 130 | 1.7 | 4.3 | 0.00 | 0.05 | 0.05 | 43 | 1014.2 |
| 20260506140638 | 67 | 134 | 2.6 | 4.3 | 0.00 | 0.05 | 0.05 | 42 | 1014.2 |
| 20260506140226 | 66 | 85 | 1.7 | 4.3 | 0.00 | 0.05 | 0.05 | 44 | 1014.2 |
| 20260506140122 | 65 | 62 | 0.9 | 4.3 | 0.00 | 0.05 | 0.05 | 47 | 1014.2 |
| 20260506135243 | 64 | 90 | 0.9 | 5.2 | 0.00 | 0.05 | 0.05 | 48 | 1014.3 |
| 20260506134800 | 64 | 10 | 1.7 | 5.2 | 0.00 | 0.05 | 0.05 | 48 | 1014.4 |
| 20260506134144 | 64 | 44 | 1.7 | 5.2 | 0.00 | 0.05 | 0.05 | 49 | 1014.4 |
| 20260506133758 | 64 | 63 | 2.6 | 9.6 | 0.00 | 0.05 | 0.05 | 51 | 1014.5 |
| 20260506133730 | 64 | 75 | 1.7 | 9.6 | 0.00 | 0.05 | 0.05 | 52 | 1014.4 |
| 20260506132751 | 64 | 28 | 5.2 | 7.8 | 0.01 | 0.05 | 0.05 | 53 | 1014.5 |
| 20260506132733 | 63 | 113 | 1.7 | 10.4 | 0.01 | 0.05 | 0.05 | 58 | 1014.5 |
| 20260506131727 | 62 | 114 | 6.1 | 10.4 | 0.01 | 0.05 | 0.05 | 56 | 1014.6 |
| 20260506131235 | 62 | 0 | 3.5 | 6.1 | 0.01 | 0.05 | 0.05 | 61 | 1014.6 |
| 20260506130634 | 61 | 80 | 2.6 | 6.1 | 0.01 | 0.05 | 0.05 | 60 | 1014.7 |
| 20260506130258 | 61 | 31 | 3.5 | 6.1 | 0.01 | 0.05 | 0.05 | 62 | 1014.7 |
| 20260506125735 | 60 | 341 | 0.9 | 7.8 | 0.00 | 0.04 | 0.05 | 63 | 1014.7 |
| 20260506125147 | 60 | 66 | 5.2 | 6.1 | 0.01 | 0.04 | 0.05 | 66 | 1014.7 |
| 20260506124635 | 58 | 104 | 1.7 | 4.3 | 0.01 | 0.04 | 0.05 | 66 | 1014.7 |
| 20260506124254 | 57 | 0 | 0.9 | 3.5 | 0.01 | 0.04 | 0.05 | 68 | 1014.7 |
| 20260506123708 | 57 | 285 | 0.9 | 3.5 | 0.01 | 0.04 | 0.05 | 68 | 1014.7 |
| 20260506123234 | 56 | 317 | 0.0 | 4.3 | 0.01 | 0.04 | 0.05 | 69 | 1014.8 |
| 20260506122706 | 55 | 331 | 1.7 | 4.3 | 0.01 | 0.04 | 0.04 | 70 | 1014.8 |
| 20260506122241 | 55 | 338 | 0.0 | 3.5 | 0.01 | 0.04 | 0.04 | 68 | 1014.8 |
| 20260506122116 | 55 | 278 | 1.7 | 8.7 | 0.01 | 0.04 | 0.04 | 68 | 1015.1 |
| 20260506121209 | 56 | 231 | 2.6 | 9.6 | 0.01 | 0.04 | 0.04 | 64 | 1015.2 |
| 20260506120745 | 56 | 243 | 6.1 | 9.6 | 0.01 | 0.04 | 0.04 | 62 | 1015.2 |
| 20260506120200 | 58 | 237 | 6.1 | 12.2 | 0.01 | 0.04 | 0.04 | 60 | 1014.8 |
| 20260506115639 | 60 | 266 | 7.0 | 12.2 | 0.00 | 0.02 | 0.04 | 58 | 1014.8 |
| 20260506115231 | 62 | 265 | 1.7 | 5.2 | 0.00 | 0.02 | 0.02 | 55 | 1014.7 |
| 20260506115109 | 61 | 244 | 5.2 | 4.3 | 0.00 | 0.00 | 0.00 | 55 | 1014.7 |
| 20260506114148 | 62 | 209 | 2.6 | 5.2 | 0.00 | 0.00 | 0.00 | 54 | 1014.7 |
| 20260506113548 | 61 | 279 | 2.6 | 4.3 | 0.00 | 0.00 | 0.00 | 56 | 1014.6 |
| 20260506113200 | 61 | 298 | 2.6 | 4.3 | 0.01 | 0.02 | 0.02 | 55 | 1014.7 |
| 20260506113116 | 61 | 278 | 0.9 | 4.3 | 0.01 | 0.02 | 0.02 | 58 | 1014.8 |
| 20260506112228 | 61 | 221 | 2.6 | 6.1 | 0.01 | 0.02 | 0.02 | 58 | 1014.7 |
| 20260506111725 | 62 | 235 | 3.5 | 6.1 | 0.01 | 0.02 | 0.02 | 55 | 1014.6 |
| 20260506111210 | 63 | 235 | 2.6 | 6.1 | 0.01 | 0.02 | 0.02 | 55 | 1014.6 |
| 20260506110721 | 64 | 231 | 2.6 | 4.3 | 0.01 | 0.02 | 0.02 | 56 | 1014.5 |
| 20260506110138 | 64 | 137 | 0.9 | 7.8 | 0.01 | 0.02 | 0.02 | 54 | 1014.5 |
| 20260506105758 | 64 | 133 | 4.3 | 7.8 | 0.00 | 0.01 | 0.02 | 53 | 1014.6 |
| 20260506105252 | 65 | 110 | 4.3 | 5.2 | 0.00 | 0.01 | 0.02 | 52 | 1014.5 |
| 20260506105223 | 65 | 128 | 2.6 | 5.2 | 0.00 | 0.01 | 0.02 | 54 | 1014.6 |
| 20260506104255 | 64 | 85 | 2.6 | 5.2 | 0.00 | 0.01 | 0.02 | 59 | 1014.6 |
| 20260506103645 | 62 | 138 | 1.7 | 3.5 | 0.00 | 0.01 | 0.01 | 60 | 1014.6 |
| 20260506103205 | 61 | 195 | 0.0 | 4.3 | 0.00 | 0.01 | 0.01 | 56 | 1014.7 |
| 20260506102752 | 62 | 148 | 1.7 | 5.2 | 0.00 | 0.01 | 0.01 | 57 | 1014.8 |
| 20260506102734 | 62 | 135 | 4.3 | 4.3 | 0.00 | 0.01 | 0.01 | 58 | 1014.9 |
| 20260506101705 | 62 | 114 | 1.7 | 5.2 | 0.00 | 0.01 | 0.01 | 59 | 1014.9 |
| 20260506101224 | 61 | 99 | 2.6 | 4.3 | 0.00 | 0.01 | 0.01 | 61 | 1014.9 |
| 20260506101213 | 60 | 135 | 0.9 | 3.5 | 0.00 | 0.01 | 0.01 | 63 | 1014.9 |
| 20260506100607 | 59 | 199 | 0.0 | 0.0 | 0.00 | 0.01 | 0.01 | 65 | 1015.1 |
| 20260506100336 | 59 | 144 | 0.9 | 3.5 | 0.00 | 0.01 | 0.01 | 62 | 1015.2 |
| 20260506095209 | 58 | 199 | 0.0 | 0.0 | 0.00 | 0.01 | 0.01 | 65 | 1015.1 |
| 20260506094751 | 58 | 199 | 0.0 | 0.0 | 0.00 | 0.01 | 0.01 | 65 | 1015.1 |
| 20260506094144 | 57 | 199 | 0.0 | 1.7 | 0.00 | 0.01 | 0.01 | 65 | 1015.1 |
| 20260506093700 | 57 | 199 | 0.0 | 1.7 | 0.00 | 0.01 | 0.01 | 66 | 1015.2 |
| 20260506093130 | 58 | 121 | 0.0 | 2.6 | 0.00 | 0.01 | 0.01 | 67 | 1015.2 |
| 20260506092739 | 58 | 118 | 0.0 | 3.5 | 0.00 | 0.01 | 0.01 | 67 | 1015.1 |
| 20260506092206 | 58 | 118 | 0.0 | 3.5 | 0.00 | 0.01 | 0.01 | 69 | 1014.9 |
| 20260506092121 | 57 | 117 | 1.7 | 3.5 | 0.00 | 0.01 | 0.01 | 71 | 1014.9 |
| 20260506091152 | 56 | 159 | 1.7 | 2.6 | 0.01 | 0.01 | 0.01 | 72 | 1014.9 |
| 20260506090707 | 56 | 164 | 0.0 | 1.7 | 0.01 | 0.01 | 0.01 | 72 | 1014.8 |
| 20260506090246 | 56 | 164 | 0.0 | 1.7 | 0.01 | 0.01 | 0.01 | 73 | 1014.8 |
| 20260506085657 | 56 | 155 | 0.0 | 1.7 | 0.00 | 0.00 | 0.01 | 74 | 1014.6 |
| 20260506085147 | 56 | 155 | 0.0 | 0.0 | 0.00 | 0.00 | 0.00 | 77 | 1014.7 |
| 20260506084631 | 55 | 155 | 0.0 | 0.0 | 0.00 | 0.00 | 0.01 | 78 | 1014.7 |
| 20260506084142 | 55 | 155 | 0.0 | 0.9 | 0.00 | 0.00 | 0.01 | 77 | 1014.7 |
| 20260506083653 | 55 | 155 | 0.0 | 1.7 | 0.00 | 0.00 | 0.01 | 77 | 1014.7 |
| 20260506083031 | 55 | 155 | 0.0 | 1.7 | 0.00 | 0.00 | 0.00 | 79 | 1014.6 |
| 20260506082733 | 55 | 155 | 0.0 | 0.9 | 0.00 | 0.00 | 0.01 | 79 | 1014.6 |
| 20260506082250 | 55 | 154 | 0.0 | 0.9 | 0.00 | 0.00 | 0.01 | 80 | 1014.6 |
| 20260506081633 | 55 | 154 | 0.0 | 0.9 | 0.00 | 0.00 | 0.00 | 80 | 1014.6 |
| 20260506081226 | 55 | 154 | 0.0 | 0.9 | 0.00 | 0.00 | 0.00 | 80 | 1014.6 |
| 20260506081125 | 54 | 154 | 0.0 | 2.6 | 0.00 | 0.00 | 0.00 | 80 | 1014.4 |
| 20260506080233 | 54 | 154 | 0.0 | 2.6 | 0.00 | 0.00 | 0.00 | 80 | 1014.5 |
| 20260506073211 | 53 | 155 | 0.0 | 0.0 | 0.00 | 0.00 | 0.00 | 80 | 1014.2 |
| 20260506072628 | 53 | 155 | 0.0 | 0.0 | 0.00 | 0.00 | 0.00 | 80 | 1014.1 |
| 20260506072305 | 53 | 155 | 0.0 | 0.0 | 0.00 | 0.00 | 0.00 | 80 | 1014.1 |
| 20260506072151 | 53 | 155 | 0.0 | 0.0 | 0.00 | 0.00 | 0.00 | 80 | 1014.1 |
| 20260506071144 | 53 | 155 | 0.0 | 0.9 | 0.00 | 0.00 | 0.00 | 80 | 1014.0 |
| 20260506070640 | 53 | 155 | 0.0 | 0.9 | 0.00 | 0.00 | 0.00 | 80 | 1013.9 |
| 20260506070258 | 53 | 155 | 0.0 | 0.9 | 0.00 | 0.00 | 0.00 | 80 | 1013.9 |
| 20260506061627 | 52 | 157 | 0.0 | 0.9 | 0.00 | 0.00 | 0.00 | 80 | 1013.5 |
| 20260506061228 | 52 | 0 | 0.0 | 0.9 | 0.00 | 0.00 | 0.00 | 80 | 1013.4 |
| 20260506060658 | 52 | 0 | 0.0 | 2.6 | 0.00 | 0.00 | 0.00 | 80 | 1013.3 |
| 20260506060142 | 52 | 0 | 0.0 | 3.5 | 0.00 | 0.00 | 0.00 | 80 | 1013.3 |
| 20260506051228 | 50 | 151 | 0.0 | 0.0 | 0.00 | 0.00 | 0.00 | 79 | 1012.8 |
| 20260506050744 | 50 | 151 | 0.0 | 0.0 | 0.00 | 0.00 | 0.00 | 79 | 1012.7 |
| 20260506050220 | 50 | 151 | 0.0 | 0.0 | 0.00 | 0.00 | 0.00 | 79 | 1012.6 |
| 20260506044252 | 51 | 151 | 0.0 | 0.0 | 0.00 | 0.00 | 0.00 | 79 | 1012.4 |
| 20260506044210 | 51 | 151 | 0.0 | 0.0 | 0.00 | 0.00 | 0.00 | 79 | 1012.4 |
| 20260506043657 | 51 | 151 | 0.0 | 0.0 | 0.00 | 0.00 | 0.00 | 79 | 1012.4 |
| 20260506042638 | 51 | 151 | 0.0 | 0.9 | 0.00 | 0.00 | 0.00 | 79 | 1012.2 |
| 20260506042305 | 51 | 151 | 0.0 | 1.7 | 0.00 | 0.00 | 0.00 | 79 | 1012.3 |
| 20260506042121 | 51 | 151 | 0.9 | 0.9 | 0.00 | 0.00 | 0.00 | 79 | 1012.3 |
| 20260506041128 | 51 | 151 | 0.0 | 0.9 | 0.00 | 0.00 | 0.00 | 79 | 1012.3 |
| 20260506040738 | 52 | 151 | 0.0 | 1.7 | 0.00 | 0.00 | 0.00 | 79 | 1012.3 |
| 20260506040315 | 52 | 151 | 0.0 | 3.5 | 0.00 | 0.00 | 0.00 | 79 | 1012.3 |
| 20260506035657 | 52 | 151 | 0.0 | 3.5 | 0.00 | 0.00 | 0.00 | 79 | 1012.3 |
| 20260506035242 | 52 | 157 | 0.0 | 3.5 | 0.00 | 0.00 | 0.00 | 79 | 1012.3 |
| 20260506034722 | 52 | 116 | 0.9 | 2.6 | 0.00 | 0.00 | 0.00 | 79 | 1012.4 |
| 20260506034253 | 52 | 116 | 0.0 | 2.6 | 0.00 | 0.00 | 0.00 | 79 | 1012.3 |
| 20260506033711 | 52 | 89 | 0.0 | 0.9 | 0.00 | 0.00 | 0.00 | 79 | 1012.2 |
| 20260506033656 | 52 | 175 | 0.9 | 1.7 | 0.00 | 0.00 | 0.00 | 79 | 1012.3 |
| 20260506032640 | 52 | 76 | 0.0 | 0.0 | 0.00 | 0.00 | 0.00 | 79 | 1012.0 |
| 20260506032129 | 52 | 306 | 0.0 | 0.0 | 0.00 | 0.00 | 0.00 | 79 | 1012.2 |
| 20260506031741 | 52 | 306 | 0.0 | 0.0 | 0.00 | 0.00 | 0.00 | 79 | 1012.1 |
| 20260506031612 | 52 | 306 | 0.0 | 0.9 | 0.00 | 0.00 | 0.00 | 79 | 1012.0 |
| 20260506030732 | 51 | 1 | 0.0 | 3.5 | 0.00 | 0.00 | 0.00 | 78 | 1011.9 |
| 20260506030723 | 52 | 306 | 0.0 | 1.7 | 0.00 | 0.00 | 0.00 | 79 | 1012.0 |
| 20260506030137 | 51 | 307 | 0.0 | 3.5 | 0.00 | 0.00 | 0.00 | 78 | 1012.0 |
| 20260506025152 | 51 | 290 | 0.0 | 0.9 | 0.00 | 0.00 | 0.00 | 78 | 1011.8 |
| 20260506024655 | 52 | 290 | 0.0 | 0.9 | 0.00 | 0.00 | 0.00 | 78 | 1011.9 |
| 20260506024144 | 52 | 290 | 0.0 | 1.7 | 0.00 | 0.00 | 0.00 | 78 | 1011.8 |
| 20260506023742 | 52 | 290 | 0.0 | 1.7 | 0.00 | 0.00 | 0.00 | 78 | 1011.7 |
| 20260506023308 | 52 | 355 | 0.0 | 0.0 | 0.00 | 0.00 | 0.00 | 78 | 1011.7 |
| 20260505212918 | 55 | 52 | 0.0 | 0.9 | 0.00 | 0.09 | 0.09 | 68 | 1014.8 |
| 20260505211756 | 55 | 54 | 0.0 | 0.9 | 0.00 | 0.09 | 0.09 | 67 | 1014.9 |
| 20260505211134 | 55 | 54 | 0.0 | 0.9 | 0.00 | 0.09 | 0.09 | 67 | 1015.1 |
| 20260505210714 | 55 | 54 | 0.0 | 0.0 | 0.00 | 0.09 | 0.09 | 66 | 1015.3 |
| 20260505210628 | 55 | 54 | 0.0 | 0.0 | 0.00 | 0.09 | 0.09 | 67 | 1015.2 |
| 20260505210437 | 55 | 54 | 0.0 | 0.0 | 0.00 | 0.09 | 0.09 | 66 | 1015.2 |
| 20260505205718 | 55 | 54 | 0.0 | 6.1 | 0.00 | 0.09 | 0.09 | 66 | 1015.3 |
| 20260505205152 | 55 | 54 | 0.0 | 6.1 | 0.00 | 0.09 | 0.09 | 66 | 1015.3 |
| 20260505204739 | 55 | 54 | 2.6 | 0.9 | 0.00 | 0.09 | 0.09 | 66 | 1015.2 |
| 20260505203734 | 55 | 85 | 0.0 | 1.7 | 0.00 | 0.09 | 0.09 | 67 | 1015.3 |
| 20260505203254 | 55 | 85 | 0.0 | 3.5 | 0.00 | 0.09 | 0.09 | 66 | 1015.2 |
| 20260505202743 | 56 | 68 | 0.0 | 3.5 | 0.00 | 0.09 | 0.09 | 66 | 1015.1 |
| 20260505202653 | 56 | 55 | 0.9 | 2.6 | 0.00 | 0.09 | 0.09 | 66 | 1015.2 |
| 20260505201734 | 56 | 61 | 0.0 | 2.6 | 0.00 | 0.09 | 0.09 | 67 | 1015.3 |
| 20260505201217 | 56 | 131 | 0.0 | 1.7 | 0.00 | 0.09 | 0.09 | 67 | 1015.2 |
| 20260505201137 | 56 | 62 | 0.0 | 2.6 | 0.00 | 0.09 | 0.09 | 67 | 1015.3 |
| 20260505200142 | 56 | 131 | 0.0 | 0.0 | 0.01 | 0.09 | 0.09 | 66 | 1015.3 |
| 20260505195700 | 56 | 131 | 0.0 | 0.0 | 0.00 | 0.00 | 0.00 | 66 | 1015.3 |
| 20260505195218 | 56 | 131 | 0.0 | 1.7 | 0.00 | 0.08 | 0.09 | 66 | 1015.1 |
| 20260505195133 | 56 | 131 | 0.0 | 0.0 | 0.00 | 0.08 | 0.09 | 66 | 1015.1 |
| 20260505194147 | 56 | 131 | 0.0 | 1.7 | 0.00 | 0.08 | 0.09 | 66 | 1014.9 |
| 20260505193748 | 56 | 131 | 0.0 | 0.0 | 0.00 | 0.08 | 0.09 | 66 | 1014.9 |
| 20260505193230 | 56 | 131 | 0.0 | 0.0 | 0.00 | 0.08 | 0.09 | 66 | 1015.1 |
| 20260505192649 | 56 | 131 | 0.0 | 0.0 | 0.00 | 0.08 | 0.09 | 66 | 1014.9 |
| 20260505192156 | 56 | 131 | 0.0 | 0.0 | 0.00 | 0.08 | 0.09 | 66 | 1014.8 |
| 20260505191656 | 56 | 131 | 0.0 | 0.0 | 0.00 | 0.08 | 0.09 | 66 | 1014.8 |
| 20260505191231 | 56 | 131 | 0.0 | 0.0 | 0.00 | 0.08 | 0.09 | 65 | 1014.7 |
| 20260505191202 | 56 | 131 | 0.0 | 0.0 | 0.00 | 0.08 | 0.08 | 65 | 1014.7 |
| 20260505190931 | 56 | 131 | 0.0 | 0.0 | 0.00 | 0.08 | 0.09 | 65 | 1014.7 |
| 20260505185719 | 56 | 131 | 0.0 | 0.0 | 0.00 | 0.08 | 0.08 | 65 | 1014.8 |
| 20260505185250 | 56 | 131 | 0.0 | 0.0 | 0.00 | 0.08 | 0.08 | 64 | 1014.7 |
| 20260505184652 | 56 | 131 | 0.0 | 0.0 | 0.00 | 0.08 | 0.08 | 65 | 1014.6 |
| 20260505184217 | 56 | 131 | 0.0 | 0.9 | 0.00 | 0.08 | 0.08 | 65 | 1014.6 |
| 20260505183730 | 56 | 131 | 0.0 | 0.9 | 0.00 | 0.08 | 0.08 | 65 | 1014.6 |
| 20260505183223 | 56 | 131 | 0.0 | 0.0 | 0.00 | 0.08 | 0.08 | 64 | 1014.4 |
| 20260505182737 | 56 | 131 | 0.0 | 0.0 | 0.00 | 0.08 | 0.08 | 64 | 1014.4 |
| 20260505182602 | 56 | 131 | 0.0 | 0.0 | 0.00 | 0.08 | 0.08 | 64 | 1014.4 |
| 20260505181722 | 56 | 131 | 0.0 | 0.0 | 0.00 | 0.08 | 0.08 | 63 | 1014.2 |
| 20260505181201 | 57 | 131 | 0.0 | 0.9 | 0.00 | 0.08 | 0.08 | 63 | 1014.1 |
| 20260505180739 | 57 | 131 | 0.0 | 0.9 | 0.00 | 0.08 | 0.08 | 63 | 1014.1 |
| 20260505180140 | 57 | 131 | 0.0 | 0.0 | 0.00 | 0.08 | 0.08 | 63 | 1014.0 |
| 20260505175724 | 57 | 131 | 0.0 | 0.0 | 0.00 | 0.08 | 0.08 | 63 | 1013.8 |